Juneau, WI

8:33 PM CST on February 25, 2017 (GMT -0600)
Dodge County

Weather History for KUNU - August, 2013

Change the Weather History Date:

Monday, August 26, 2013

  Actual Average Record
Temperature  
Mean Temperature 78 °F -  
Max Temperature 88 °F 76 °F 94 °F (1973)
Min Temperature 68 °F 57 °F 45 °F (1986)
Cooling Degree Days 13    
Growing Degree Days 28 (Base 50)    
Moisture  
Dew Point 65 °F    
Average Humidity 66    
Maximum Humidity 82    
Minimum Humidity 43    
Precipitation  
Precipitation 0.00 in - - ()
Sea Level Pressure  
Sea Level Pressure 30.06 in    
Wind  
Wind Speed 10 mph (SSW)    
Max Wind Speed 20 mph    
Max Gust Speed 24 mph    
Visibility 10 miles    
Events Thunderstorm    
Averages and records for this station are not official NWS values.
T = Trace of Precipitation, MM = Missing Value Source: NWS Daily Summary

Daily Weather History Graph

Daily Weather History Graph

Search for Another Location

Airport or City:

Trip Planner

Search our weather history database for the weather conditions in past years. The results will help you decide how hot, cold, wet, or windy it might be!

Date:

Astronomy

Aug. 26, 2013 Rise Set
Actual Time 6:12 AM CDT 7:39 PM CDT
Civil Twilight 5:42 AM CDT 8:09 PM CDT
Nautical Twilight 5:06 AM CDT 8:45 PM CDT
Astronomical Twilight 4:27 AM CDT 9:23 PM CDT
Moon 10:37 PM CDT 12:25 PM CDT
Length of Visible Light 14h 27m
Length of Day
13h 27m
Waning Gibbous, 66% of the Moon is Illuminated
Aug 26
Waning Gibbous
Aug 28
Last Quarter
Sep 5
New
Sep 12
First Quarter
Sep 19
Full

Hourly Weather History & Observations

Time (CDT) Temp. Heat Index Dew Point Humidity Pressure Visibility Wind Dir Wind Speed Gust Speed Precip Events Conditions
12:15 AM 73.2 °F - 62.8 °F 70% 30.11 in 10.0 mi SSW 11.5 mph - N/A   Clear
12:35 AM 73.0 °F - 62.6 °F 70% 30.10 in 10.0 mi South 12.7 mph - N/A   Clear
12:55 AM 73.4 °F - 63.0 °F 70% 30.09 in 10.0 mi SSW 13.8 mph - N/A   Clear
1:15 AM 72.7 °F - 63.3 °F 72% 30.10 in 10.0 mi SSW 12.7 mph - N/A   Clear
1:35 AM 72.5 °F - 63.5 °F 73% 30.11 in 10.0 mi SSW 12.7 mph - N/A   Clear
1:55 AM 72.3 °F - 63.3 °F 73% 30.11 in 10.0 mi SSW 9.2 mph - N/A   Clear
2:15 AM 71.8 °F - 63.5 °F 75% 30.10 in 10.0 mi SSW 11.5 mph - N/A   Clear
2:35 AM 71.6 °F - 63.1 °F 75% 30.10 in 10.0 mi SSW 11.5 mph - N/A   Clear
2:55 AM 71.1 °F - 63.5 °F 77% 30.09 in 10.0 mi SSW 10.4 mph - N/A   Clear
3:15 AM 71.1 °F - 63.3 °F 76% 30.09 in 10.0 mi SSW 11.5 mph - N/A   Clear
3:35 AM 70.9 °F - 63.0 °F 76% 30.09 in 10.0 mi SSW 9.2 mph - N/A   Clear
3:55 AM 70.5 °F - 63.0 °F 77% 30.10 in 10.0 mi SSW 8.1 mph - N/A   Clear
4:15 AM 70.7 °F - 63.0 °F 76% 30.09 in 10.0 mi SSW 9.2 mph - N/A   Clear
4:35 AM 70.3 °F - 63.0 °F 77% 30.10 in 10.0 mi SSW 9.2 mph - N/A   Clear
4:55 AM 70.5 °F - 63.0 °F 77% 30.10 in 10.0 mi SSW 9.2 mph - N/A   Clear
5:15 AM 69.6 °F - 63.0 °F 79% 30.09 in 10.0 mi SSW 8.1 mph - N/A   Clear
5:35 AM 69.3 °F - 63.0 °F 80% 30.10 in 10.0 mi SSW 6.9 mph - N/A   Clear
5:55 AM 69.1 °F - 63.0 °F 81% 30.10 in 10.0 mi SSW 5.8 mph - N/A   Clear
6:15 AM 68.5 °F - 63.0 °F 82% 30.12 in 10.0 mi SSW 6.9 mph - N/A   Clear
6:35 AM 68.9 °F - 63.1 °F 82% 30.12 in 10.0 mi SSW 6.9 mph - N/A   Clear
6:55 AM 69.8 °F - 63.1 °F 79% 30.12 in 10.0 mi South 6.9 mph - N/A   Clear
7:15 AM 70.7 °F - 63.0 °F 76% 30.12 in 10.0 mi South 5.8 mph - N/A   Scattered Clouds
7:35 AM 71.1 °F - 63.1 °F 76% 30.12 in 10.0 mi South 6.9 mph - N/A   Scattered Clouds
7:55 AM 71.6 °F - 63.1 °F 75% 30.12 in 10.0 mi SSW 8.1 mph - N/A   Scattered Clouds
8:15 AM 72.0 °F - 63.3 °F 74% 30.12 in 10.0 mi SSW 9.2 mph - N/A   Scattered Clouds
8:35 AM 72.5 °F - 63.7 °F 74% 30.12 in 10.0 mi SSW 9.2 mph - N/A   Mostly Cloudy
8:55 AM 72.7 °F - 64.0 °F 74% 30.17 in 10.0 mi North 12.7 mph 16.1 mph N/A   Overcast
9:15 AM 73.4 °F - 64.4 °F 73% 30.16 in 10.0 mi North 4.6 mph - N/A Thunderstorm Mostly Cloudy
9:35 AM 74.3 °F - 64.9 °F 72% 30.15 in 10.0 mi Calm Calm - N/A   Clear
9:55 AM 75.4 °F - 64.6 °F 69% 30.14 in 10.0 mi Calm Calm - N/A   Clear
10:15 AM 76.5 °F - 63.9 °F 65% 30.14 in 10.0 mi Calm Calm - N/A   Clear
10:35 AM 77.0 °F - 64.0 °F 64% 30.15 in 10.0 mi Calm Calm - N/A   Clear
10:55 AM 77.4 °F - 63.9 °F 63% 30.14 in 10.0 mi Calm Calm - N/A   Scattered Clouds
11:15 AM 79.5 °F - 63.9 °F 59% 30.13 in 10.0 mi NNW 3.5 mph - N/A   Scattered Clouds
11:35 AM 80.1 °F 81.6 °F 63.5 °F 57% 30.12 in 10.0 mi NNE 3.5 mph - N/A   Clear
11:55 AM 81.1 °F 81.9 °F 61.0 °F 50% 30.11 in 10.0 mi SE 4.6 mph - N/A   Clear
12:15 PM 82.2 °F 83.3 °F 63.0 °F 52% 30.09 in 10.0 mi South 9.2 mph - N/A   Clear
12:35 PM 83.3 °F 84.1 °F 62.1 °F 49% 30.08 in 10.0 mi South 10.4 mph - N/A   Clear
12:55 PM 83.5 °F 84.1 °F 61.9 °F 48% 30.07 in 10.0 mi SSW 12.7 mph - N/A   Clear
1:15 PM 83.5 °F 83.9 °F 61.5 °F 47% 30.06 in 10.0 mi South 13.8 mph - N/A   Clear
1:35 PM 84.9 °F 85.2 °F 61.3 °F 45% 30.05 in 10.0 mi SSW 15.0 mph - N/A   Clear
1:55 PM 85.3 °F 85.4 °F 61.0 °F 44% 30.04 in 10.0 mi SSW 13.8 mph - N/A   Clear
2:15 PM 86.7 °F 87.0 °F 61.9 °F 43% 30.04 in 10.0 mi SSW 13.8 mph 18.4 mph N/A   Clear
2:35 PM 85.6 °F 86.8 °F 63.9 °F 48% 30.03 in 10.0 mi SSW 15.0 mph 21.9 mph N/A   Clear
2:55 PM 87.1 °F 88.0 °F 63.7 °F 45% 30.02 in 10.0 mi SSW 16.1 mph 21.9 mph N/A   Clear
3:15 PM 88.0 °F 89.6 °F 64.9 °F 46% 30.02 in 10.0 mi SW 17.3 mph 23.0 mph N/A   Clear
3:35 PM 87.8 °F 89.4 °F 64.8 °F 46% 30.01 in 10.0 mi SW 19.6 mph 24.2 mph N/A   Clear
3:55 PM 87.4 °F 89.1 °F 65.1 °F 47% 30.01 in 10.0 mi SSW 15.0 mph - N/A   Clear
4:15 PM 88.0 °F 90.0 °F 65.7 °F 47% 30.01 in 10.0 mi SW 15.0 mph - N/A   Clear
4:35 PM 88.0 °F 90.7 °F 66.7 °F 49% 30.01 in 10.0 mi SSW 15.0 mph 19.6 mph N/A   Clear
4:55 PM 88.5 °F 91.9 °F 67.6 °F 50% 30.01 in 10.0 mi SW 12.7 mph - N/A   Clear
5:15 PM 88.2 °F 91.3 °F 67.6 °F 50% 30.00 in 10.0 mi SSW 12.7 mph - N/A   Clear
5:35 PM 87.6 °F 91.1 °F 68.0 °F 52% 30.00 in 10.0 mi SSW 11.5 mph - N/A   Clear
5:55 PM 87.8 °F 91.8 °F 68.7 °F 53% 29.99 in 10.0 mi SSW 12.7 mph - N/A   Clear
6:15 PM 87.3 °F 91.6 °F 69.1 °F 55% 29.98 in 10.0 mi SSW 11.5 mph - N/A   Clear
6:35 PM 86.5 °F 90.7 °F 68.9 °F 56% 29.98 in 10.0 mi SSW 10.4 mph - N/A   Clear
6:55 PM 85.3 °F 89.4 °F 69.4 °F 59% 29.98 in 10.0 mi SSW 9.2 mph - N/A   Clear
7:15 PM 84.2 °F 88.4 °F 69.8 °F 62% 29.97 in 10.0 mi SSW 8.1 mph - N/A   Clear
7:35 PM 82.8 °F 86.9 °F 70.5 °F 66% 29.97 in 10.0 mi South 4.6 mph - N/A   Clear
7:55 PM 81.5 °F 85.9 °F 71.6 °F 72% 29.98 in 10.0 mi South 5.8 mph - N/A   Clear
8:15 PM 80.6 °F 84.4 °F 71.2 °F 73% 29.99 in 10.0 mi SSW 5.8 mph - N/A   Clear
8:35 PM 79.7 °F - 71.1 °F 75% 29.99 in 10.0 mi SSW 6.9 mph - N/A   Clear
8:55 PM 78.8 °F - 70.7 °F 76% 29.99 in 10.0 mi SSW 5.8 mph - N/A   Clear
9:15 PM 78.1 °F - 70.5 °F 77% 29.99 in 10.0 mi SSW 6.9 mph - N/A   Clear
9:35 PM 78.4 °F - 70.7 °F 77% 29.99 in 10.0 mi South 8.1 mph - N/A   Clear
9:55 PM 78.4 °F - 70.7 °F 77% 30.00 in 10.0 mi South 6.9 mph - N/A   Clear
10:15 PM 77.9 °F - 70.3 °F 77% 29.99 in 10.0 mi South 8.1 mph - N/A   Clear
10:35 PM 77.9 °F - 69.8 °F 76% 29.99 in 10.0 mi South 8.1 mph - N/A   Clear
10:55 PM 77.9 °F - 69.8 °F 76% 29.99 in 10.0 mi South 9.2 mph - N/A   Clear
11:15 PM 77.4 °F - 69.8 °F 77% 29.99 in 10.0 mi South 9.2 mph - N/A   Clear
11:35 PM 77.4 °F - 69.4 °F 76% 29.98 in 10.0 mi SSW 10.4 mph - N/A   Clear
11:55 PM 77.4 °F - 69.1 °F 76% 29.98 in 10.0 mi SSW 10.4 mph - N/A   Clear